GW2092 Weather Reports


time (UTC)temp
F
wind
direction
speed
knots
gust
knots
rain 1hr
in
rain 24hr
in
rain mn
in
humidity
%
barometer
mb
20260904083056 74 0 0.0 0.0 0.00 0.00 0.00 78 1015.1
20260904081549 74 0 0.0 0.0 0.00 0.00 0.00 78 1015.1
20260904080058 74 0 0.0 0.0 0.00 0.00 0.00 77 1015.1
20260904074559 75 0 0.0 0.0 0.00 0.00 0.00 76 1015.1
20260904073044 75 0 0.0 0.0 0.00 0.00 0.00 75 1015.1
20260904071603 76 0 0.0 0.0 0.00 0.00 0.00 75 1015.1
20260904070048 76 0 0.0 0.0 0.00 0.00 0.00 74 1015.2
20260904064546 77 0 0.0 0.0 0.00 0.00 0.00 72 1015.2
20260904063051 78 0 0.0 0.0 0.00 0.00 0.00 71 1015.1
20260904061547 79 0 0.0 1.7 0.00 0.00 0.00 70 1015.1
20260904060056 79 0 0.0 0.0 0.00 0.00 0.00 70 1014.7
20260904054554 79 0 0.0 0.9 0.00 0.00 0.00 70 1014.7
20260904053048 79 0 0.0 0.9 0.00 0.00 0.00 70 1014.9
20260904051547 78 0 0.0 0.9 0.00 0.00 0.00 71 1015.0
20260904050055 78 0 0.0 0.0 0.00 0.00 0.00 71 1014.9
20260904044552 78 0 0.0 0.0 0.00 0.00 0.00 70 1015.0
20260904043105 79 0 0.0 0.0 0.00 0.00 0.00 69 1015.0
20260904041550 79 0 0.0 0.0 0.00 0.00 0.00 69 1014.9
20260904040055 79 0 0.0 0.0 0.00 0.00 0.00 69 1014.9
20260904034546 79 0 0.0 0.0 0.00 0.00 0.00 69 1014.9
20260904033047 80 0 0.0 0.0 0.00 0.00 0.00 68 1014.9
20260904031556 80 0 0.0 0.0 0.00 0.00 0.00 66 1014.9
20260904030049 81 0 0.0 0.0 0.00 0.00 0.00 65 1014.7
20260904024549 82 0 0.0 0.0 0.00 0.00 0.00 64 1014.5
20260904023045 82 0 0.0 0.0 0.00 0.00 0.00 63 1014.3
20260904021556 83 0 0.0 0.0 0.00 0.00 0.00 62 1013.9
20260904020050 84 0 0.0 0.0 0.00 0.00 0.00 60 1013.8
20260904014551 85 0 0.0 0.0 0.00 0.00 0.00 58 1013.6
20260904013048 87 0 0.0 0.0 0.00 0.00 0.00 55 1013.4
20260904011555 88 0 0.0 0.0 0.00 0.00 0.00 53 1013.2
20260904010056 89 0 0.0 0.0 0.00 0.00 0.00 52 1013.1
20260904004551 90 0 0.0 0.9 0.00 0.00 0.00 50 1013.1
20260904003055 92 0 0.0 0.9 0.00 0.00 0.00 49 1013.0
20260904001604 93 0 0.0 2.6 0.00 0.00 0.00 48 1013.0
20260904000051 94 0 0.0 1.7 0.00 0.00 0.00 46 1013.0
20260903234546 94 0 0.0 3.5 0.00 0.00 0.00 45 1012.9
20260903233047 95 229 1.7 6.1 0.00 0.00 0.00 44 1012.8
20260903231552 96 221 0.9 4.3 0.00 0.00 0.00 43 1012.9
20260903230047 97 0 0.0 5.2 0.00 0.00 0.00 42 1012.9
20260903224544 99 69 0.9 5.2 0.00 0.00 0.00 39 1012.8
20260903223056 99 124 0.9 7.0 0.00 0.00 0.00 39 1012.8
20260903221548 100 233 1.7 6.1 0.00 0.00 0.00 39 1012.6
20260903220059 101 213 1.7 6.1 0.00 0.00 0.00 38 1012.8
20260903214553 100 219 0.0 7.0 0.00 0.00 0.00 39 1013.0
20260903213049 101 155 0.9 5.2 0.00 0.00 0.00 38 1013.1
20260903211547 101 103 0.0 5.2 0.00 0.00 0.00 37 1013.2
20260903210100 101 201 0.9 8.7 0.00 0.00 0.00 37 1013.3
20260903204548 101 226 1.7 5.2 0.00 0.00 0.00 37 1013.5
20260903203046 101 118 0.9 6.1 0.00 0.00 0.00 37 1013.6
20260903201556 101 0 0.0 4.3 0.00 0.00 0.00 38 1013.7
20260903200058 99 173 0.9 6.1 0.00 0.00 0.00 40 1013.8
20260903194552 100 0 0.9 5.2 0.00 0.00 0.00 40 1013.9
20260903193104 100 134 0.9 3.5 0.00 0.00 0.00 39 1014.1
20260903191554 100 74 0.9 4.3 0.00 0.00 0.00 40 1014.4
20260903190054 99 235 0.0 4.3 0.00 0.00 0.00 41 1014.5
20260903184547 99 226 0.9 7.0 0.00 0.00 0.00 42 1014.9
20260903183056 100 232 0.9 3.5 0.00 0.00 0.00 41 1015.0
20260903181553 99 246 0.9 4.3 0.00 0.00 0.00 42 1015.1
20260903180053 98 283 0.9 5.2 0.00 0.00 0.00 44 1015.3
20260903174547 98 212 0.0 3.5 0.00 0.00 0.00 45 1015.6
20260903173055 97 138 0.9 5.2 0.00 0.00 0.00 45 1015.7
20260903171600 96 204 0.0 7.8 0.00 0.00 0.00 46 1015.9
20260903170046 95 127 0.9 5.2 0.00 0.00 0.00 48 1015.9
20260903164554 94 192 0.9 8.7 0.00 0.00 0.00 49 1016.0
20260903163052 94 208 0.0 6.1 0.00 0.00 0.00 51 1016.3
20260903161549 93 167 0.0 7.0 0.00 0.00 0.00 50 1016.5
20260903160057 92 130 0.9 5.2 0.00 0.00 0.00 52 1016.6
20260903154554 92 122 0.0 5.2 0.00 0.00 0.00 53 1016.6
20260903153049 91 180 1.7 6.1 0.00 0.00 0.00 55 1016.7
20260903151607 90 0 0.0 6.1 0.00 0.00 0.00 57 1016.8
20260903144549 87 150 1.7 6.1 0.00 0.00 0.00 62 1016.7
20260903143102 86 183 0.9 4.3 0.00 0.00 0.00 64 1016.8
20260903141555 84 154 0.9 5.2 0.00 0.00 0.00 67 1017.0
20260903140055 82 139 0.9 5.2 0.00 0.00 0.00 69 1017.2
20260903134553 81 194 0.0 2.6 0.00 0.00 0.00 72 1017.3
20260903133059 79 107 0.0 3.5 0.00 0.00 0.00 75 1017.2
20260903131556 78 219 0.0 3.5 0.00 0.00 0.00 77 1016.8
20260903130057 77 0 0.0 3.5 0.00 0.00 0.00 79 1016.8
20260903124549 76 115 0.0 1.7 0.00 0.00 0.00 80 1016.7
20260903123046 74 198 0.0 1.7 0.00 0.00 0.00 83 1016.7
20260903121554 72 0 0.0 0.0 0.00 0.00 0.00 85 1016.7
20260903120055 72 0 0.0 0.9 0.00 0.00 0.00 86 1016.7
20260903114548 71 0 0.0 0.0 0.00 0.00 0.00 84 1016.6
20260903113046 72 0 0.0 0.0 0.00 0.00 0.00 84 1016.6
20260903111545 72 0 0.0 0.0 0.00 0.00 0.00 83 1016.5
20260903110047 72 0 0.0 0.0 0.00 0.00 0.00 84 1016.6
20260903104550 72 0 0.0 0.0 0.00 0.00 0.00 82 1016.5
20260903103048 72 0 0.0 0.0 0.00 0.00 0.00 82 1016.4
20260903101546 72 0 0.0 0.0 0.00 0.00 0.00 82 1016.5
20260903100045 73 0 0.0 0.0 0.00 0.00 0.00 80 1016.5
20260903094559 73 0 0.0 0.0 0.00 0.00 0.00 80 1016.4
20260903093054 74 0 0.0 0.0 0.00 0.00 0.00 78 1016.4
20260903091556 74 0 0.0 0.0 0.00 0.00 0.00 78 1016.3
20260903090053 75 0 0.0 0.0 0.00 0.00 0.00 76 1016.3
20260903084548 76 0 0.0 0.0 0.00 0.00 0.00 75 1016.3